Zurück zum Katalog

STARLINK-31484

AktivKommunikationVLEO
NORAD 59005·PAYLOAD·🇺🇸 United States

Gestartet Feb 23, 2024 von Vandenberg Space Force Base

Loading…

Nächste Überflüge (nächste 24 Stunden)

TLE

AktuellSource: CelesTrak SupGP

Epoche: Sep 15, 2026, 01:42 UTC

1 59005C 24036H   26258.07131944  .00018198  00000+0  53741-3 0  2583
2 59005  53.1573 276.8642 0001316  82.4841 185.3666 15.34396783    13

Verfolge STARLINK-31484 in Echtzeit mit AllMySat

Download on the App Store